Weather History for KW22 - April, 2013

Change the Weather History Date:

Monday, April 22, 2013

  Actual Average (KEKN) Record (KEKN)
Temperature  
Mean Temperature 50 °F 52 °F  
Max Temperature 64 °F 65 °F 88 °F (1902)
Min Temperature 37 °F 38 °F 23 °F (1904)
Degree Days  
Heating Degree Days 14 13  
Month to date heating degree days 365  
Since 1 July heating degree days 5466  
Cooling Degree Days 0 0  
Month to date cooling degree days 0  
Year to date cooling degree days 0  
Moisture  
Dew Point 26 °F    
Average Humidity 39    
Maximum Humidity 70    
Minimum Humidity 20    
Precipitation  
Precipitation 0.00 in 0.13 in 0.80 in (1931)
Month to date precipitation 2.76  
Year to date precipitation 13.05  
Snow  
Snow 0.00 in - - ()
Month to date snowfall  
Since 1 September snowfall  
Snow Depth -    
Sea Level Pressure  
Sea Level Pressure 30.33 in    
Wind  
Wind Speed 1 mph (ENE)    
Max Wind Speed 12 mph    
Max Gust Speed 17 mph    
Visibility 10 miles    
Events      
T = Trace of Precipitation, MM = Missing Value Source: NWS Daily Summary

Daily Weather History Graph

Daily Weather History Graph

Search for Another Location

Airport or City:

Trip Planner

Search our weather history database for the weather conditions in past years. The results will help you decide how hot, cold, wet, or windy it might be!

Date:

Astronomy

Apr. 22, 2013 Rise Set
Actual Time 6:34 AM EDT 8:05 PM EDT
Civil Twilight 6:06 AM EDT 8:33 PM EDT
Nautical Twilight 5:32 AM EDT 9:07 PM EDT
Astronomical Twilight 4:56 AM EDT 9:43 PM EDT
Moon 4:54 PM EDT (4/22) 4:26 AM EDT (4/22)
Length of Visible Light 14h 27m
Length of Day
13h 31m
Waxing Gibbous, 87% of the Moon is Illuminated
Apr 22
Waxing Gibbous
Apr 25
Full
May 2
Last Quarter
May 9
New
May 18
First Quarter

Hourly Weather History & Observations

Time (EDT) Temp. Dew Point Humidity Pressure Visibility Wind Dir Wind Speed Gust Speed Precip Events Conditions
12:15 AM 46.4 °F 30.2 °F 53% 30.42 in 10.0 mi Calm Calm - N/A   Clear
12:35 AM 46.4 °F 30.2 °F 53% 30.42 in 10.0 mi Calm Calm - N/A   Clear
12:55 AM 46.4 °F 30.2 °F 53% 30.42 in 10.0 mi Calm Calm - N/A   Clear
1:15 AM 46.4 °F 30.2 °F 53% 30.42 in 10.0 mi Calm Calm - N/A   Clear
1:35 AM 46.4 °F 30.2 °F 53% 30.42 in 10.0 mi Calm Calm - N/A   Clear
1:55 AM 46.4 °F 28.4 °F 50% 30.41 in 10.0 mi Calm Calm - N/A   Clear
2:15 AM 44.6 °F 28.4 °F 53% 30.41 in 10.0 mi Calm Calm - N/A   Clear
2:35 AM 44.6 °F 28.4 °F 53% 30.40 in 10.0 mi Calm Calm - N/A   Clear
2:55 AM 44.6 °F 28.4 °F 53% 30.40 in 10.0 mi Calm Calm - N/A   Clear
3:15 AM 44.6 °F 28.4 °F 53% 30.39 in 10.0 mi Calm Calm - N/A   Clear
3:35 AM 42.8 °F 30.2 °F 61% 30.39 in 10.0 mi Calm Calm - N/A   Clear
3:55 AM 42.8 °F 30.2 °F 61% 30.39 in 10.0 mi Calm Calm - N/A   Clear
4:15 AM 42.8 °F 28.4 °F 57% 30.39 in 10.0 mi Calm Calm - N/A   Clear
4:35 AM 42.8 °F 28.4 °F 57% 30.39 in 10.0 mi Calm Calm - N/A   Clear
4:55 AM 42.8 °F 28.4 °F 57% 30.39 in 10.0 mi Calm Calm - N/A   Clear
5:15 AM 41.0 °F 28.4 °F 61% 30.39 in 10.0 mi Calm Calm - N/A   Clear
5:35 AM 39.2 °F 28.4 °F 65% 30.39 in 10.0 mi Calm Calm - N/A   Clear
5:55 AM 39.2 °F 28.4 °F 65% 30.39 in 10.0 mi Calm Calm - N/A   Clear
6:15 AM 39.2 °F 28.4 °F 65% 30.40 in 10.0 mi Calm Calm - N/A   Clear
6:35 AM 37.4 °F 28.4 °F 70% 30.40 in 10.0 mi Calm Calm - N/A   Clear
6:55 AM 39.2 °F 28.4 °F 65% 30.40 in 10.0 mi Calm Calm - N/A   Clear
7:15 AM 39.2 °F 28.4 °F 65% 30.40 in 10.0 mi Calm Calm - N/A   Clear
7:35 AM 41.0 °F 28.4 °F 61% 30.40 in 10.0 mi Calm Calm - N/A   Clear
7:55 AM 42.8 °F 28.4 °F 57% 30.40 in 10.0 mi Calm Calm - N/A   Clear
8:15 AM 44.6 °F 28.4 °F 53% 30.40 in 10.0 mi Calm Calm - N/A   Clear
8:35 AM 44.6 °F 28.4 °F 53% 30.40 in 10.0 mi Calm Calm - N/A   Clear
8:55 AM 46.4 °F 28.4 °F 50% 30.40 in 10.0 mi Calm Calm - N/A   Clear
9:15 AM 48.2 °F 28.4 °F 46% 30.41 in 10.0 mi Calm Calm - N/A   Clear
9:35 AM 50.0 °F 28.4 °F 43% 30.41 in 10.0 mi Calm Calm - N/A   Clear
9:55 AM 51.8 °F 28.4 °F 41% 30.41 in 10.0 mi ESE 6.9 mph - N/A   Clear
10:15 AM 51.8 °F 28.4 °F 41% 30.40 in 10.0 mi ESE 8.1 mph - N/A   Clear
10:35 AM 53.6 °F 26.6 °F 35% 30.40 in 10.0 mi Calm Calm - N/A   Clear
10:55 AM 53.6 °F 26.6 °F 35% 30.40 in 10.0 mi SE 4.6 mph - N/A   Clear
11:15 AM 55.4 °F 28.4 °F 36% 30.39 in 10.0 mi Calm Calm - N/A   Clear
11:35 AM 55.4 °F 28.4 °F 36% 30.39 in 10.0 mi NE 4.6 mph - N/A   Clear
11:55 AM 55.4 °F 26.6 °F 33% 30.38 in 10.0 mi Calm Calm - N/A   Clear
12:15 PM 57.2 °F 28.4 °F 33% 30.37 in 10.0 mi Calm Calm - N/A   Clear
12:35 PM 57.2 °F 28.4 °F 33% 30.36 in 10.0 mi Calm Calm - N/A   Clear
12:55 PM 57.2 °F 26.6 °F 31% 30.35 in 10.0 mi Calm Calm - N/A   Clear
1:15 PM 60.8 °F 26.6 °F 27% 30.33 in 10.0 mi Calm Calm - N/A   Clear
1:35 PM 60.8 °F 28.4 °F 29% 30.32 in 10.0 mi North 10.4 mph - N/A   Clear
1:55 PM 62.6 °F 28.4 °F 27% 30.32 in 10.0 mi East 4.6 mph - N/A   Clear
2:15 PM 62.6 °F 26.6 °F 26% 30.31 in 10.0 mi Calm Calm - N/A   Clear
2:35 PM 62.6 °F 26.6 °F 26% 30.30 in 10.0 mi Calm Calm - N/A   Clear
2:55 PM 62.6 °F 23.0 °F 22% 30.30 in 10.0 mi NE 5.8 mph - N/A   Clear
3:15 PM 62.6 °F 23.0 °F 22% 30.29 in 10.0 mi ENE 3.5 mph - N/A   Clear
3:35 PM 62.6 °F 24.8 °F 24% 30.28 in 10.0 mi Calm Calm - N/A   Clear
3:55 PM 62.6 °F 23.0 °F 22% 30.27 in 10.0 mi NNE 3.5 mph - N/A   Clear
4:15 PM 64.4 °F 23.0 °F 21% 30.26 in 10.0 mi Calm Calm - N/A   Clear
4:35 PM 64.4 °F 24.8 °F 22% 30.25 in 10.0 mi North 9.2 mph - N/A   Clear
4:55 PM 64.4 °F 23.0 °F 21% 30.24 in 10.0 mi North 4.6 mph - N/A   Clear
5:15 PM 64.4 °F 23.0 °F 21% 30.23 in 10.0 mi NNE 11.5 mph - N/A   Clear
5:35 PM 64.4 °F 23.0 °F 21% 30.23 in 10.0 mi NNE 5.8 mph 17.3 mph N/A   Clear
5:55 PM 64.4 °F 23.0 °F 21% 30.23 in 10.0 mi Calm Calm - N/A   Clear
6:15 PM 64.4 °F 23.0 °F 21% 30.23 in 10.0 mi Calm Calm - N/A   Clear
6:35 PM 62.6 °F 23.0 °F 22% 30.23 in 10.0 mi NE 3.5 mph - N/A   Clear
6:55 PM 62.6 °F 21.2 °F 20% 30.22 in 10.0 mi Calm Calm - N/A   Clear
7:15 PM 60.8 °F 21.2 °F 22% 30.23 in 10.0 mi NE 9.2 mph - N/A   Clear
7:35 PM 60.8 °F 19.4 °F 20% 30.23 in 10.0 mi ENE 4.6 mph - N/A   Clear
7:55 PM 59.0 °F 19.4 °F 22% 30.23 in 10.0 mi ENE 5.8 mph - N/A   Clear
8:15 PM 57.2 °F 19.4 °F 23% 30.23 in 10.0 mi NE 3.5 mph - N/A   Clear
8:35 PM 55.4 °F 19.4 °F 25% 30.23 in 10.0 mi Calm Calm - N/A   Clear
8:55 PM 55.4 °F 19.4 °F 25% 30.24 in 10.0 mi East 3.5 mph - N/A   Clear
9:15 PM 55.4 °F 21.2 °F 26% 30.25 in 10.0 mi ESE 4.6 mph - N/A   Clear
9:35 PM 53.6 °F 21.2 °F 28% 30.25 in 10.0 mi ESE 6.9 mph - N/A   Clear
9:55 PM 53.6 °F 21.2 °F 28% 30.26 in 10.0 mi ESE 5.8 mph - N/A   Clear
10:15 PM 51.8 °F 21.2 °F 30% 30.26 in 10.0 mi Calm Calm - N/A   Clear
10:35 PM 51.8 °F 21.2 °F 30% 30.27 in 10.0 mi Calm Calm - N/A   Clear
10:55 PM 51.8 °F 23.0 °F 33% 30.27 in 10.0 mi Calm Calm - N/A   Clear
11:15 PM 50.0 °F 23.0 °F 35% 30.27 in 10.0 mi East 3.5 mph - N/A   Clear
11:35 PM 48.2 °F 24.8 °F 40% 30.26 in 10.0 mi Calm Calm - N/A   Clear
11:55 PM 48.2 °F 26.6 °F 43% 30.26 in 10.0 mi Calm Calm - N/A   Clear